Hohenkirchen-Siegertsbrunn, Germany

8:21 AM CET on December 03, 2016 (GMT +0100)
Munich

Weather History for EDDM - May, 2013

Change the Weather History Date:

Monday, May 6, 2013

  Actual Average Record
Temperature  
Mean Temperature 58 °F -  
Max Temperature 68 °F 63 °F 84 °F (2003)
Min Temperature 48 °F 44 °F 35 °F (2011)
Degree Days  
Heating Degree Days 7    
Growing Degree Days 8 (Base 50)    
Moisture  
Dew Point 51 °F    
Average Humidity 77    
Maximum Humidity 100    
Minimum Humidity 52    
Precipitation  
Precipitation 0.00 in - - ()
Sea Level Pressure  
Sea Level Pressure 30.02 in    
Wind  
Wind Speed 8 mph ()    
Max Wind Speed 13 mph    
Max Gust Speed -    
Visibility 5.5 miles    
Events Rain    
Averages and records for this station are not official NWS values.
T = Trace of Precipitation, MM = Missing Value Source: Averaged Metar Reports

Daily Weather History Graph

Daily Weather History Graph

Search for Another Location

Airport or City:

Trip Planner

Search our weather history database for the weather conditions in past years. The results will help you decide how hot, cold, wet, or windy it might be!

Date:

Astronomy

May. 06, 2013 Rise Set
Actual Time 5:45 AM CEST 8:33 PM CEST
Civil Twilight 5:09 AM CEST 9:09 PM CEST
Nautical Twilight 4:24 AM CEST 9:56 PM CEST
Astronomical Twilight 3:29 AM CEST 10:51 PM CEST
Moon 3:55 AM CEST (5/6) 5:02 PM CEST (5/6)
Length of Visible Light 16h 00m
Length of Day
14h 48m
Waning Crescent, 13% of the Moon is Illuminated
May 6
Waning Crescent
May 10
New
May 18
First Quarter
May 25
Full
May 31
Last Quarter

Hourly Weather History & Observations

Time (CEST) Temp. Dew Point Humidity Pressure Visibility Wind Dir Wind Speed Gust Speed Precip Events Conditions
12:20 AM 50.0 °F 46.4 °F 87% 30.12 in - NE 6.9 mph - N/A   Clear
12:50 AM 50.0 °F 46.4 °F 87% 30.12 in - NE 8.1 mph - N/A   Clear
1:20 AM 50.0 °F 46.4 °F 87% 30.12 in - NE 8.1 mph - N/A   Clear
1:50 AM 50.0 °F 46.4 °F 87% 30.12 in - NE 8.1 mph - N/A   Clear
2:20 AM 50.0 °F 46.4 °F 87% 30.09 in - NE 8.1 mph - N/A   Clear
2:50 AM 50.0 °F 46.4 °F 87% 30.09 in - NE 9.2 mph - N/A   Clear
3:20 AM 50.0 °F 46.4 °F 87% 30.09 in - NE 8.1 mph - N/A   Clear
3:50 AM 50.0 °F 46.4 °F 87% 30.06 in - NE 8.1 mph - N/A   Clear
4:20 AM 50.0 °F 46.4 °F 87% 30.06 in - NE 9.2 mph - N/A   Clear
4:50 AM 48.2 °F 46.4 °F 93% 30.06 in - NE 8.1 mph - N/A   Clear
5:20 AM 48.2 °F 46.4 °F 93% 30.06 in - NE 9.2 mph - N/A   Clear
5:50 AM 48.2 °F 44.6 °F 87% 30.06 in - NE 8.1 mph - N/A   Clear
6:20 AM 48.2 °F 46.4 °F 93% 30.06 in - ENE 8.1 mph - N/A   Clear
6:50 AM 50.0 °F 46.4 °F 87% 30.06 in 6.2 mi NE 8.1 mph - N/A   Scattered Clouds
7:20 AM 51.8 °F 48.2 °F 88% 30.06 in 6.2 mi NE 9.2 mph - N/A   Scattered Clouds
7:50 AM 53.6 °F 50.0 °F 88% 30.06 in 6.2 mi NE 8.1 mph - N/A   Scattered Clouds
8:20 AM 55.4 °F 50.0 °F 82% 30.06 in 6.2 mi ENE 9.2 mph - N/A   Scattered Clouds
8:50 AM 59.0 °F 51.8 °F 77% 30.04 in 6.2 mi ENE 9.2 mph - N/A   Scattered Clouds
9:20 AM 59.0 °F 51.8 °F 77% 30.04 in 6.2 mi ENE 10.4 mph - N/A   Scattered Clouds
9:50 AM 59.0 °F 51.8 °F 77% 30.04 in 6.2 mi East 12.7 mph - N/A   Scattered Clouds
10:20 AM 60.8 °F 51.8 °F 72% 30.04 in 6.2 mi East 11.5 mph - N/A   Scattered Clouds
10:50 AM 62.6 °F 53.6 °F 72% 30.04 in 6.2 mi East 10.4 mph - N/A   Scattered Clouds
11:20 AM 62.6 °F 53.6 °F 72% 30.04 in 6.2 mi East 9.2 mph - N/A   Scattered Clouds
11:50 AM 64.4 °F 53.6 °F 68% 30.04 in 6.2 mi East 9.2 mph - N/A   Scattered Clouds
12:20 PM 64.4 °F 51.8 °F 64% 30.01 in 6.2 mi ENE 11.5 mph - N/A   Scattered Clouds
12:50 PM 64.4 °F 53.6 °F 68% 30.01 in 6.2 mi ENE 9.2 mph - N/A   Scattered Clouds
1:20 PM 64.4 °F 50.0 °F 59% 30.01 in 6.2 mi ENE 11.5 mph - N/A   Scattered Clouds
1:50 PM 66.2 °F 57.2 °F 73% 30.01 in 6.2 mi East 10.4 mph - N/A   Scattered Clouds
2:20 PM 66.2 °F 53.6 °F 64% 29.98 in 6.2 mi ENE 8.1 mph - N/A   Scattered Clouds
2:50 PM 68.0 °F 50.0 °F 52% 29.98 in 6.2 mi East 6.9 mph - N/A   Scattered Clouds
3:20 PM 68.0 °F 51.8 °F 56% 29.98 in 6.2 mi East 6.9 mph - N/A   Scattered Clouds
3:50 PM 68.0 °F 51.8 °F 56% 29.98 in 6.2 mi NE 6.9 mph - N/A   Scattered Clouds
4:20 PM 68.0 °F 50.0 °F 52% 29.98 in 6.2 mi ENE 6.9 mph - N/A   Scattered Clouds
4:50 PM 68.0 °F 51.8 °F 56% 29.95 in 6.2 mi ENE 4.6 mph - N/A   Mostly Cloudy
5:20 PM 68.0 °F 51.8 °F 56% 29.95 in 6.2 mi NNE 5.8 mph - N/A   Mostly Cloudy
5:50 PM 68.0 °F 51.8 °F 56% 29.95 in 6.2 mi North 8.1 mph - N/A   Mostly Cloudy
6:20 PM 66.2 °F 55.4 °F 68% 29.95 in 6.2 mi North 9.2 mph - N/A   Mostly Cloudy
6:50 PM 66.2 °F 55.4 °F 68% 29.95 in 6.2 mi NNW 11.5 mph - N/A   Mostly Cloudy
7:20 PM 66.2 °F 53.6 °F 64% 29.95 in 6.2 mi North 10.4 mph - N/A   Scattered Clouds
7:50 PM 64.4 °F 53.6 °F 68% 29.95 in 6.2 mi NNW 10.4 mph - N/A   Scattered Clouds
8:20 PM 62.6 °F 55.4 °F 77% 29.95 in 4.3 mi North 9.2 mph - N/A Rain Light Rain Showers
8:50 PM 60.8 °F 55.4 °F 82% 29.98 in 3.7 mi North 5.8 mph - N/A Rain Light Rain Showers
9:20 PM 59.0 °F 53.6 °F 82% 29.98 in 3.7 mi ENE 4.6 mph - N/A Rain Light Rain Showers
9:50 PM 57.2 °F 55.4 °F 94% 30.01 in 2.2 mi East 4.6 mph - N/A Rain Rain Showers
10:20 PM 55.4 °F 53.6 °F 94% 29.98 in 3.1 mi West 4.6 mph - N/A Rain Light Rain Showers
10:50 PM 55.4 °F 53.6 °F 94% 29.98 in 3.1 mi NW 3.5 mph - N/A Rain Rain Showers
11:20 PM 55.4 °F 55.4 °F 100% 29.98 in 3.1 mi North 2.3 mph - N/A Rain Light Rain Showers
11:50 PM 55.4 °F 53.6 °F 94% 29.98 in 3.1 mi NNE 5.8 mph - N/A Rain Light Rain Showers